WetterOnline ( https://www.wetteronline.de )

Wetter aktuell Leutkirch

Aktuelles Wetter: Leutkirch-Herlazhofen (671m)

6-stündlich | Neueste Meldungen
Ortszeit Temperatur Wetter
Do, 29.09. 2:00 6.4° C bedeckt
Mi, 28.09. 20:00 6.6° C leichter Regen
Mi, 28.09. 14:00 7.7° C Regen
Mi, 28.09. 8:00 6.8° C leichter Regen
Mi, 28.09. 2:00 7.4° C Sprühregen
Di, 27.09. 20:00 7.3° C Sprühregen
Di, 27.09. 14:00 8.4° C leichter Regen
Di, 27.09. 8:00 7.8° C bewölkt
Ortszeit Temperatur Wetter
Do, 29.09. 7:30 5.9° C leichter Regen
Do, 29.09. 7:20 5.9° C leichter Regen
Do, 29.09. 7:10 5.8° C leichter Regen
Do, 29.09. 7:00 5.7° C bedeckt
Do, 29.09. 6:50 5.7° C bedeckt
Do, 29.09. 6:40 5.7° C bedeckt
Do, 29.09. 6:30 5.7° C bedeckt
Do, 29.09. 6:00 5.7° C Sprühregen
Do, 29.09. 5:30 5.8° C bedeckt
Do, 29.09. 5:00 5.7° C bewölkt
Do, 29.09. 4:30 5.8° C bedeckt
Ortszeit Relative Feuchte Sichtweite
Do, 29.09. 2:00 95% >70 km
Mi, 28.09. 20:00 98% 12 km
Mi, 28.09. 14:00 95% 4.2 km
Mi, 28.09. 8:00 95% 14 km
Mi, 28.09. 2:00 92% 23 km
Di, 27.09. 20:00 91% 60 km
Di, 27.09. 14:00 79% 17 km
Di, 27.09. 8:00 89% 55 km
Ortszeit Relative Feuchte Sichtweite
Do, 29.09. 7:30 97% 30 km
Do, 29.09. 7:20 97% -
Do, 29.09. 7:10 97% -
Do, 29.09. 7:00 97% 65 km
Do, 29.09. 6:50 97% -
Do, 29.09. 6:40 97% -
Do, 29.09. 6:30 98% >70 km
Do, 29.09. 6:00 99% 35 km
Do, 29.09. 5:30 98% 55 km
Do, 29.09. 5:00 97% 50 km
Do, 29.09. 4:30 95% >70 km
Ortszeit Niederschlagsmenge Niederschlagsart
Do, 29.09. 2:00 4 l/m2 in 6 Std. Regen
Mi, 28.09. 20:00 22 l/m2 in 12 Std. Regen
Mi, 28.09. 14:00 13 l/m2 in 6 Std. Regen
Mi, 28.09. 8:00 4 l/m2 in 12 Std. Regen
Mi, 28.09. 2:00 2 l/m2 in 6 Std. Regen
Di, 27.09. 20:00 4 l/m2 in 12 Std. Regen
Di, 27.09. 14:00 1 l/m2 in 6 Std. Regen
Di, 27.09. 8:00 6 l/m2 in 12 Std. Regen
Ortszeit Niederschlagsmenge Niederschlagsart
Do, 29.09. 7:30 <0.05 l/m2 in 1 Std. -
Do, 29.09. 7:20 keine Meldung -
Do, 29.09. 7:10 keine Meldung -
Do, 29.09. 7:00 <0.05 l/m2 in 1 Std. Sprühregen
Do, 29.09. 6:50 keine Meldung -
Do, 29.09. 6:40 keine Meldung -
Do, 29.09. 6:30 <0.05 l/m2 in 1 Std. Schnee
Do, 29.09. 6:00 <0.05 l/m2 in 1 Std. Regen
Do, 29.09. 5:30 0.0 l/m2 in 1 Std. -
Do, 29.09. 5:00 <0.05 l/m2 in 1 Std. Regen
Do, 29.09. 4:30 <0.05 l/m2 in 1 Std. Schneeregen
Ortszeit Stärke Spitze Richtung
km/h Bft. km/h Grad Sektor
Do, 29.09. 2:00 7 2 25 200° S
Mi, 28.09. 20:00 4 1 18 270° W
Mi, 28.09. 14:00 11 2 36 220° SW
Mi, 28.09. 8:00 14 3 40 210° SW
Mi, 28.09. 2:00 22 4 47 220° SW
Di, 27.09. 20:00 22 4 50 240° SW
Di, 27.09. 14:00 22 4 54 250° W
Di, 27.09. 8:00 24 4 54 240° SW
Ortszeit Stärke Spitze Richtung
km/h Bft. km/h Grad Sektor
Do, 29.09. 7:30 4 1 7 330° NW
Do, 29.09. 7:20 4 1 - 330° NW
Do, 29.09. 7:10 6 1 - 320° NW
Do, 29.09. 7:00 2 1 4 20° N
Do, 29.09. 6:50 2 1 - 20° N
Do, 29.09. 6:40 2 1 - 40° NO
Do, 29.09. 6:30 4 1 4 50° NO
Do, 29.09. 6:00 2 1 4 150° SO
Do, 29.09. 5:30 0 0 4 - -
Do, 29.09. 5:00 0 0 7 - -
Do, 29.09. 4:30 2 1 9 110° O
Ortszeit Untergrenze Bedeckung Gattung
total tief tief mittel hoch
Do, 29.09. 2:00 420 m 8/8 8/8 - - -
Mi, 28.09. 20:00 870 m 7/8 7/8 - - -
Mi, 28.09. 14:00 690 m 8/8 8/8 - - -
Mi, 28.09. 8:00 660 m 8/8 8/8 - - -
Mi, 28.09. 2:00 480 m 8/8 8/8 - - -
Di, 27.09. 20:00 390 m 8/8 8/8 - - -
Di, 27.09. 14:00 630 m 8/8 8/8 - - -
Di, 27.09. 8:00 360 m 7/8 7/8 - - -
Ortszeit Bedeckungsgrad in Achtel und Wolkenuntergrenze
Do, 29.09. 7:30 6(840m) 7(1140m)
Do, 29.09. 7:20 6(840m) 7(1140m)
Do, 29.09. 7:10 7
Do, 29.09. 7:00 1(870m) 8(1110m) 8(2100m)
Do, 29.09. 6:50 1(870m) 8(1110m) 8(2100m)
Do, 29.09. 6:40 8
Do, 29.09. 6:30 1(900m) 8(1380m) 8(2400m)
Do, 29.09. 6:00 7(1320m) 8(1500m) 8(2400m)
Do, 29.09. 5:30 3(960m) 8(1350m)
Do, 29.09. 5:00 7(990m) 7(1500m) 8(3900m)
Do, 29.09. 4:30 1(1260m) 8(2700m) 8(4200m)
Ortszeit Luftdruck NN (hPa) Tendenz (hPa in 3 Std.)
Do, 29.09. 2:00 1003 - 0,7
Mi, 28.09. 20:00 1002 + 0,7
Mi, 28.09. 14:00 1001 + 1,1
Mi, 28.09. 8:00 999 - 1,1
Mi, 28.09. 2:00 1004 - 1,5
Di, 27.09. 20:00 1005 + 0,6
Di, 27.09. 14:00 1004 - 0,3
Di, 27.09. 8:00 1003 + 1,2
Ortszeit Luftdruck NN (hPa) Tendenz (hPa in 3 Std.)
Do, 29.09. 7:30 1002 - 0,3
Do, 29.09. 7:20 1002 keine Meldung
Do, 29.09. 7:10 1002 keine Meldung
Do, 29.09. 7:00 1002 - 0,3
Do, 29.09. 6:50 1002 keine Meldung
Do, 29.09. 6:40 1002 keine Meldung
Do, 29.09. 6:30 1002 - 0,4
Do, 29.09. 6:00 1002 - 0,9
Do, 29.09. 5:30 1002 - 0,7
Do, 29.09. 5:00 1003 - 0,5
Do, 29.09. 4:30 1003 - 0,9
Ortszeit Schneehöhe (cm)
Do, 29.09. 2:00 0
Mi, 28.09. 20:00 0
Mi, 28.09. 14:00 0
Mi, 28.09. 8:00 0
Mi, 28.09. 2:00 0
Di, 27.09. 20:00 0
Di, 27.09. 14:00 0
Di, 27.09. 8:00 0
Ortszeit Schneehöhe (cm)
Do, 29.09. 7:30 0
Do, 29.09. 7:20 0
Do, 29.09. 7:10 0
Do, 29.09. 7:00 0
Do, 29.09. 6:50 0
Do, 29.09. 6:40 0
Do, 29.09. 6:30 0
Do, 29.09. 6:00 0
Do, 29.09. 5:30 0
Do, 29.09. 5:00 0
Do, 29.09. 4:30 0
Link zu dieser Seite / Seite empfehlen

Das Wetter in ...